| time (UTC) | temp C | wind direction | speed KPH | gust KPH | rain 1hr cm | rain 24hr cm | rain mn cm | humidity % | barometer mb |
| 20260906114602 | 22 | 0 | 3.2 | 8.0 | 0.00 | 0.66 | 0.00 | 92 | 1014.3 |
| 20260906113100 | 22 | 0 | 1.6 | 8.0 | 0.00 | 0.66 | 0.00 | 92 | 1013.9 |
| 20260906111604 | 22 | 0 | 0.0 | 8.0 | 0.00 | 0.66 | 0.00 | 92 | 1013.7 |
| 20260906110055 | 22 | 0 | 1.6 | 8.0 | 0.00 | 0.66 | 0.00 | 92 | 1013.7 |
| 20260906104558 | 22 | 41 | 3.2 | 6.4 | 0.00 | 0.66 | 0.00 | 91 | 1013.6 |
| 20260906103111 | 22 | 42 | 3.2 | 11.3 | 0.00 | 0.66 | 0.00 | 91 | 1013.5 |
| 20260906101600 | 22 | 0 | 0.0 | 4.8 | 0.00 | 0.66 | 0.00 | 90 | 1013.4 |
| 20260906100100 | 22 | 9 | 0.0 | 11.3 | 0.00 | 0.66 | 0.00 | 89 | 1013.2 |
| 20260906094601 | 22 | 8 | 1.6 | 6.4 | 0.00 | 0.66 | 0.00 | 89 | 1013.0 |
| 20260906093059 | 23 | 6 | 3.2 | 8.0 | 0.00 | 0.66 | 0.00 | 88 | 1013.0 |
| 20260906091602 | 23 | 324 | 0.0 | 4.8 | 0.00 | 0.66 | 0.00 | 87 | 1012.9 |
| 20260906090118 | 23 | 0 | 0.0 | 9.7 | 0.00 | 0.66 | 0.00 | 87 | 1013.0 |
| 20260906084558 | 23 | 25 | 0.0 | 0.0 | 0.00 | 0.66 | 0.00 | 88 | 1012.9 |
| 20260906083112 | 23 | 0 | 0.0 | 4.8 | 0.00 | 0.66 | 0.00 | 88 | 1012.9 |
| 20260906081600 | 23 | 0 | 0.0 | 3.2 | 0.00 | 0.66 | 0.00 | 88 | 1013.0 |
| 20260906080127 | 23 | 358 | 0.0 | 3.2 | 0.00 | 0.66 | 0.00 | 88 | 1012.7 |
| 20260906074610 | 23 | 0 | 0.0 | 1.6 | 0.00 | 0.66 | 0.00 | 87 | 1012.8 |
| 20260906073109 | 23 | 0 | 0.0 | 0.0 | 0.00 | 0.66 | 0.00 | 87 | 1013.0 |
| 20260906071558 | 23 | 0 | 0.0 | 1.6 | 0.00 | 0.66 | 0.00 | 86 | 1013.0 |
| 20260906070058 | 23 | 0 | 0.0 | 0.0 | 0.00 | 0.66 | 0.00 | 85 | 1013.1 |
| 20260906064602 | 24 | 0 | 0.0 | 0.0 | 0.00 | 0.66 | 0.00 | 85 | 1013.0 |
| 20260906063103 | 24 | 0 | 0.0 | 1.6 | 0.00 | 0.66 | 0.00 | 84 | 1013.2 |
| 20260906061601 | 24 | 0 | 0.0 | 0.0 | 0.00 | 0.66 | 0.00 | 84 | 1013.2 |
| 20260906054559 | 25 | 0 | 0.0 | 0.0 | 0.00 | 0.66 | 0.00 | 83 | 1013.2 |
| 20260906053100 | 25 | 0 | 0.0 | 3.2 | 0.00 | 0.66 | 0.00 | 81 | 1013.2 |
| 20260906051605 | 25 | 0 | 0.0 | 1.6 | 0.00 | 0.66 | 0.00 | 80 | 1013.0 |
| 20260906050107 | 25 | 0 | 0.0 | 1.6 | 0.00 | 0.66 | 0.00 | 79 | 1013.0 |
| 20260906044600 | 26 | 0 | 0.0 | 0.0 | 0.00 | 0.66 | 0.00 | 78 | 1013.0 |
| 20260906043101 | 26 | 0 | 0.0 | 0.0 | 0.00 | 0.66 | 0.00 | 77 | 1012.9 |
| 20260906041603 | 26 | 0 | 0.0 | 1.6 | 0.00 | 0.66 | 0.00 | 77 | 1012.8 |
| 20260906034627 | 26 | 48 | 0.0 | 3.2 | 0.00 | 0.66 | 0.66 | 78 | 1012.9 |
| 20260906033055 | 26 | 0 | 0.0 | 0.0 | 0.00 | 0.66 | 0.66 | 77 | 1012.5 |
| 20260906031605 | 26 | 0 | 0.0 | 0.0 | 0.00 | 0.66 | 0.66 | 76 | 1012.4 |
| 20260906024555 | 26 | 0 | 0.0 | 0.0 | 0.00 | 0.66 | 0.66 | 75 | 1012.6 |
| 20260906023101 | 26 | 0 | 0.0 | 0.0 | 0.00 | 0.66 | 0.66 | 74 | 1012.7 |
| 20260906021603 | 26 | 0 | 0.0 | 0.0 | 0.00 | 0.66 | 0.66 | 73 | 1012.4 |
| 20260906020107 | 27 | 0 | 0.0 | 0.0 | 0.00 | 0.66 | 0.66 | 71 | 1012.0 |
| 20260906014559 | 27 | 0 | 0.0 | 0.0 | 0.00 | 0.66 | 0.66 | 69 | 1012.1 |
| 20260906013106 | 27 | 0 | 0.0 | 0.0 | 0.00 | 0.66 | 0.66 | 67 | 1011.6 |
| 20260906011603 | 27 | 0 | 0.0 | 0.0 | 0.00 | 0.66 | 0.66 | 66 | 1011.5 |
| 20260906010100 | 28 | 0 | 0.0 | 3.2 | 0.00 | 0.66 | 0.66 | 64 | 1011.5 |
| 20260906004558 | 28 | 0 | 0.0 | 0.0 | 0.00 | 0.66 | 0.66 | 62 | 1011.5 |
| 20260906003059 | 28 | 0 | 0.0 | 3.2 | 0.00 | 0.66 | 0.66 | 61 | 1011.6 |
| 20260906001600 | 28 | 127 | 1.6 | 4.8 | 0.00 | 0.66 | 0.66 | 60 | 1011.7 |
| 20260906000108 | 29 | 0 | 0.0 | 3.2 | 0.00 | 0.66 | 0.66 | 61 | 1012.0 |
| 20260905234618 | 30 | 0 | 0.0 | 6.4 | 0.00 | 0.66 | 0.66 | 60 | 1012.2 |
| 20260905233055 | 31 | 131 | 0.0 | 4.8 | 0.00 | 0.66 | 0.66 | 58 | 1012.2 |
| 20260905231605 | 32 | 89 | 0.0 | 3.2 | 0.00 | 0.66 | 0.66 | 57 | 1012.1 |
| 20260905230106 | 32 | 0 | 0.0 | 0.0 | 0.00 | 0.66 | 0.66 | 56 | 1011.7 |
| 20260905224556 | 33 | 0 | 0.0 | 0.0 | 0.00 | 0.66 | 0.66 | 54 | 1011.5 |
| 20260905223106 | 33 | 0 | 0.0 | 3.2 | 0.00 | 0.66 | 0.66 | 53 | 1011.3 |
| 20260905221556 | 33 | 277 | 0.0 | 1.6 | 0.00 | 0.66 | 0.66 | 54 | 1011.4 |
| 20260905220120 | 33 | 0 | 0.0 | 0.0 | 0.00 | 0.66 | 0.66 | 55 | 1011.4 |
| 20260905214606 | 33 | 0 | 1.6 | 6.4 | 0.00 | 0.66 | 0.66 | 53 | 1011.6 |
| 20260905213058 | 33 | 0 | 0.0 | 1.6 | 0.00 | 0.66 | 0.66 | 52 | 1011.7 |
| 20260905211600 | 33 | 285 | 0.0 | 6.4 | 0.00 | 0.66 | 0.66 | 51 | 1011.7 |
| 20260905210105 | 34 | 0 | 0.0 | 9.7 | 0.00 | 0.66 | 0.66 | 50 | 1011.7 |
| 20260905204558 | 33 | 288 | 6.4 | 11.3 | 0.00 | 0.66 | 0.66 | 49 | 1012.0 |
| 20260905203111 | 34 | 272 | 0.0 | 4.8 | 0.00 | 0.66 | 0.66 | 50 | 1012.1 |
| 20260905201559 | 34 | 39 | 3.2 | 8.0 | 0.00 | 0.66 | 0.66 | 48 | 1012.4 |
| 20260905200105 | 33 | 280 | 1.6 | 4.8 | 0.00 | 0.66 | 0.66 | 50 | 1012.7 |
| 20260905194600 | 33 | 0 | 1.6 | 9.7 | 0.00 | 0.66 | 0.66 | 51 | 1012.9 |
| 20260905193103 | 33 | 0 | 0.0 | 4.8 | 0.00 | 0.66 | 0.66 | 54 | 1013.0 |
| 20260905191557 | 32 | 0 | 0.0 | 6.4 | 0.00 | 0.66 | 0.66 | 52 | 1013.2 |
| 20260905184611 | 32 | 72 | 1.6 | 4.8 | 0.00 | 0.66 | 0.66 | 52 | 1013.5 |
| 20260905183103 | 32 | 0 | 1.6 | 4.8 | 0.00 | 0.66 | 0.66 | 54 | 1013.9 |
| 20260905181600 | 31 | 86 | 0.0 | 4.8 | 0.00 | 0.66 | 0.66 | 53 | 1014.1 |
| 20260905180108 | 31 | 0 | 1.6 | 4.8 | 0.00 | 0.66 | 0.66 | 55 | 1014.3 |
| 20260905174605 | 31 | 0 | 0.0 | 4.8 | 0.00 | 0.66 | 0.66 | 56 | 1014.2 |
| 20260905173058 | 31 | 117 | 1.6 | 8.0 | 0.00 | 0.66 | 0.66 | 57 | 1014.2 |
| 20260905171635 | 30 | 0 | 1.6 | 8.0 | 0.00 | 0.66 | 0.66 | 57 | 1014.3 |
| 20260905170106 | 30 | 0 | 0.0 | 3.2 | 0.00 | 0.66 | 0.66 | 59 | 1014.6 |
| 20260905164602 | 30 | 105 | 0.0 | 4.8 | 0.00 | 0.66 | 0.66 | 62 | 1014.9 |
| 20260905163057 | 29 | 0 | 3.2 | 8.0 | 0.00 | 0.66 | 0.66 | 62 | 1015.1 |
| 20260905161601 | 28 | 134 | 1.6 | 6.4 | 0.00 | 0.66 | 0.66 | 64 | 1015.1 |
| 20260905160110 | 28 | 216 | 1.6 | 6.4 | 0.00 | 0.66 | 0.66 | 68 | 1015.0 |
| 20260905154620 | 27 | 154 | 0.0 | 4.8 | 0.00 | 0.66 | 0.66 | 68 | 1015.1 |
| 20260905153104 | 27 | 0 | 1.6 | 4.8 | 0.00 | 0.66 | 0.66 | 72 | 1015.2 |
| 20260905151557 | 26 | 0 | 0.0 | 6.4 | 0.00 | 0.66 | 0.66 | 77 | 1015.2 |
| 20260905150107 | 25 | 20 | 1.6 | 4.8 | 0.00 | 0.66 | 0.66 | 80 | 1015.3 |
| 20260905144610 | 25 | 101 | 1.6 | 8.0 | 0.00 | 0.66 | 0.66 | 83 | 1015.5 |
| 20260905143105 | 24 | 98 | 1.6 | 8.0 | 0.00 | 0.66 | 0.66 | 85 | 1015.7 |
| 20260905141602 | 23 | 100 | 1.6 | 6.4 | 0.00 | 0.66 | 0.66 | 90 | 1015.6 |
| 20260905140105 | 23 | 89 | 1.6 | 4.8 | 0.00 | 0.66 | 0.66 | 93 | 1015.7 |
| 20260905134607 | 23 | 114 | 0.0 | 8.0 | 0.53 | 0.66 | 0.66 | 93 | 1016.0 |
| 20260905133106 | 22 | 297 | 0.0 | 11.3 | 0.56 | 0.66 | 0.66 | 94 | 1016.1 |
| 20260905131602 | 22 | 0 | 0.0 | 6.4 | 0.56 | 0.66 | 0.66 | 94 | 1016.2 |
| 20260905130059 | 22 | 18 | 0.0 | 12.9 | 0.56 | 0.66 | 0.66 | 92 | 1016.0 |
| 20260905124556 | 22 | 13 | 3.2 | 9.7 | 0.03 | 0.13 | 0.13 | 91 | 1016.1 |
| 20260905123106 | 22 | 10 | 0.0 | 3.2 | 0.10 | 0.10 | 0.10 | 91 | 1015.5 |
| 20260905121607 | 22 | 0 | 0.0 | 3.2 | 0.10 | 0.10 | 0.10 | 90 | 1015.2 |